OBJECT A, 67646

Orbit data source: Space-Track

You're viewing an Uncataloged Satellite

Recently launched and/or uncataloged satellites may have evolving metadata. Metadata may include but not limited to: Owner, Maufacturer, Bus, Motor, and Mission.

OBJECT A, 67646 is a satellite owned by ASAL (CN) in SSO that was launched on Sat, 31 Jan 2026 UTC via a CHANG ZHENG 2C launch vehicle from the Jiuquan Satellite Launch Center, China (JSC). Unknown objects in Earth's orbit typically refer to objects detected orbiting the Earth but have not yet been identified or cataloged. These objects could be anything from previously untracked satellites, spent rocket stages, debris from satellite collisions, or even natural meteoroids temporarily captured by Earth's gravity.

Loading next visibility...
Identifier
67646, 2026-021A
Orbit
SSO
Country
Flag of CNCN / PRC
Related business
Manufacturer
CAST
Mission
Operational Defense Imaging
Bus & Motor
CAST-2000?, Unknown motor
Mass
~500 kg wet, ~500 kg dry
Launch date (UTC)
2026-01-31 (5 months ago)
Launch vehicle
CHANG ZHENG 2C
Launch site
Jiuquan Satellite Launch Center, China (JSC)
Object type
Unknown
Shape & HBR
Box + 2 Pan, 2.9 m
Radar Cross Section
3.315 m², Large (>1 m²)

Expand to show TLE details & history
Last TLE update: 10 hours ago

TLE from 10 hours ago
0 OBJECT A
1 67646U 26021A   26171.44261235  .00004726  00000-0  20070-3 0  9995
2 67646  97.4583 245.1884 0016197 149.5933 210.6247 15.23441276 21366
Epoch: 2026-06-20T10:37Z
TLE epoch observation values (Epoch: 2026-06-20T10:37:21.707Z)
Latitude
0.00003°
Longitude
177.19078°
Altitude
508.151 km
Speed
7.605 km/s
True Right ascension
16h 20m 45s
True Declination
0° 00' 00"
Sunlit
Object was in full shadow at epoch
Visualization orbit readout
Latitude
Unknown
Longitude
Unknown
Altitude
Unknown
Speed
Unknown
Apparent Right ascension
Unknown
Apparent Declination
Unknown
Sunlit
N/A
Visualization observer readout
Local Sidereal Time
07:19:39
Azimuth
Unknown
Elevation
Unknown
Doppler factor
Unknown
Orbital elements
Apogee altitude
503.562 km
Perigee altitude
481.305 km
Semi-major axis
6,870.57 km
Eccentricity
0.00162
Inclination
97.4583°
RAAN
245.1884°
Arg. of periapsis
149.5933°
True anomaly
210.53032°
Mean anomaly
210.6247°
Eccentric anomaly
210.57749°
Mean motion
3.81113 °/min
Orbital period
94.46 mins
BSTAR
0.0002007
Loading maneuver chart data...
Computing Atmospheric mass density...
Loading historical data...
Loading historical data...
Loading historical data...
Loading historical data...
Loading historical data...
Loading historical data...
Loading historical data...
Other satellites on launch #21 in the year 2026 (2026-01-31 UTC)

Documentation

Showing up to 5 results
|